ISS DEB (44788 NORAD) Tracking and Keplerian Element Data

This shows tracking and keplerian element data for the satellite.

Feedback or suggestion? Click here.




ElementValue
Catalog44788
NameISS DEB
Epoch Orbit8607
Epoch Day139.20619362
Epoch Year2021
RAAN72.7184
Inclination51.6096
Eccentricity0.000818
Argument of Perigee236.6804
Mean Anonmoly123.3439
Mean Motion16.39590941
Decay Rate0.11291896
L11 44788U 98067QT 21139.20619362 .11291896 12313-4 84854-3 0 9999
L22 44788 51.6096 72.7184 0008180 236.6804 123.3439 16.39590941 86078



Live tracking and technical data element details for ISS DEB (NORAD 44788). ISS DEB can be tracked NOW for your location showing map with azimuth and elevation plus other details from your city location.







IsCatalogInMostPopularTable: catalog: 44788, numindb: 25844
Update: records affected: 1



GetName: 44788 ISS DEB

Hit Count: updated at: Mon, 18 May 2026 09:45:34 GMT